This is the latest recevied weather packets stored in our database for station/object KQ4JKJ. If no packets are shown the sender has not sent any weather packets the latest 10 day(s).
| Time | Temp. | Humidity | Pressure | Rain* | Wind** | Luminosity | Snow |
|---|---|---|---|---|---|---|---|
| 1777595062 | 27.78° C | 58% | 1004 hPa | 0 mm | - | 0 W/m² | - |
| 1777594758 | 27.78° C | 58% | 1004.1 hPa | 0 mm | - | 0 W/m² | - |
| 1777594455 | 27.78° C | 58% | 1003.6 hPa | 0 mm | - | 0 W/m² | - |
| 1777594149 | 28.33° C | 58% | 1003.7 hPa | 0 mm | - | 0 W/m² | - |
| 1777593846 | 28.33° C | 58% | 1003.8 hPa | 0 mm | - | 1 W/m² | - |
| 1777593543 | 28.33° C | 58% | 1003.4 hPa | 0 mm | - | 2 W/m² | - |
| 1777593237 | 28.33° C | 58% | 1003.4 hPa | 0 mm | - | 3 W/m² | - |
| 1777592937 | 28.89° C | 58% | 1003.2 hPa | 0 mm | - | 5 W/m² | - |
| 1777592632 | 28.89° C | 57% | 1003.1 hPa | 0 mm | - | 9 W/m² | - |
| 1777592329 | 28.89° C | 57% | 1003.2 hPa | 0 mm | - | 13 W/m² | - |
| 1777592024 | 29.44° C | 56% | 1003.3 hPa | 0 mm | - | 16 W/m² | - |
| 1777591721 | 29.44° C | 56% | 1003.3 hPa | 0 mm | - | 19 W/m² | - |
| 1777591416 | 29.44° C | 55% | 1003 hPa | 0 mm | - | 26 W/m² | - |
| 1777591113 | 30° C | 54% | 1002.9 hPa | 0 mm | - | 30 W/m² | - |
| 1777590807 | 30° C | 53% | 1003 hPa | 0 mm | - | 34 W/m² | - |
| 1777590504 | 30.56° C | 52% | 1003.1 hPa | 0 mm | - | 40 W/m² | - |
| 1777590195 | 30.56° C | 52% | 1002.9 hPa | 0 mm | - | 51 W/m² | - |
| 1777589892 | 30.56° C | 52% | 1003.2 hPa | 0 mm | - | 80 W/m² | - |
| 1777589588 | 30.56° C | 51% | 1003.1 hPa | 0 mm | - | 78 W/m² | - |
| 1777589285 | 30.56° C | 52% | 1003 hPa | 0 mm | - | 68 W/m² | - |
| 1777588983 | 30.56° C | 51% | 1003 hPa | 0 mm | - | 55 W/m² | - |
| 1777588678 | 30.56° C | 50% | 1002.8 hPa | 0 mm | - | 49 W/m² | - |
| 1777588374 | 31.11° C | 50% | 1002.9 hPa | 0 mm | - | 49 W/m² | - |
| 1777588070 | 31.67° C | 50% | 1002.6 hPa | 0 mm | - | 69 W/m² | - |
| 1777587761 | 31.67° C | 50% | 1002.9 hPa | 0 mm | - | 74 W/m² | - |
* Rain latest hour (hover to see other rain measurements)
** Current wind speed in m/s (hover to see current wind gust speed)